Year,Month,Day,Hour,Minute,Value (Times are PST for insolation in W/m^2)
2018,02,25,00,00,0.00
2018,02,25,00,01,0.00
2018,02,25,00,02,0.00
2018,02,25,00,03,0.00
2018,02,25,00,04,0.00
2018,02,25,00,05,0.00
2018,02,25,00,06,0.00
2018,02,25,00,07,0.00
2018,02,25,00,08,0.00
2018,02,25,00,09,0.00
2018,02,25,00,10,0.00
2018,02,25,00,11,0.00
2018,02,25,00,12,0.00
2018,02,25,00,13,0.00
2018,02,25,00,14,0.00
2018,02,25,00,15,0.00
2018,02,25,00,16,0.00
2018,02,25,00,17,0.00
2018,02,25,00,18,0.00
2018,02,25,00,19,0.00
2018,02,25,00,20,0.00
2018,02,25,00,21,0.00
2018,02,25,00,22,0.00
2018,02,25,00,23,0.00
2018,02,25,00,24,0.00
2018,02,25,00,25,0.00
2018,02,25,00,26,0.00
2018,02,25,00,27,0.00
2018,02,25,00,28,0.00
2018,02,25,00,29,0.00
2018,02,25,00,30,0.00
2018,02,25,00,31,0.00
2018,02,25,00,32,0.00
2018,02,25,00,33,0.00
2018,02,25,00,34,0.00
2018,02,25,00,35,0.00
2018,02,25,00,36,0.00
2018,02,25,00,37,0.00
2018,02,25,00,38,0.00
2018,02,25,00,39,0.00
2018,02,25,00,40,0.00
2018,02,25,00,41,0.00
2018,02,25,00,42,0.00
2018,02,25,00,43,0.00
2018,02,25,00,44,0.00
2018,02,25,00,45,0.00
2018,02,25,00,46,0.00
2018,02,25,00,47,0.00
2018,02,25,00,48,0.00
2018,02,25,00,49,0.00
2018,02,25,00,50,0.00
2018,02,25,00,51,0.00
2018,02,25,00,52,0.00
2018,02,25,00,53,0.00
2018,02,25,00,54,0.00
2018,02,25,00,55,0.00
2018,02,25,00,56,0.00
2018,02,25,00,57,0.00
2018,02,25,00,58,0.00
2018,02,25,00,59,0.00
2018,02,25,01,00,0.00
2018,02,25,01,01,0.00
2018,02,25,01,02,0.00
2018,02,25,01,03,0.00
2018,02,25,01,04,0.00
2018,02,25,01,05,0.00
2018,02,25,01,06,0.00
2018,02,25,01,07,0.00
2018,02,25,01,08,0.00
2018,02,25,01,09,0.00
2018,02,25,01,10,0.00
2018,02,25,01,11,0.00
2018,02,25,01,12,0.00
2018,02,25,01,13,0.00
2018,02,25,01,14,0.00
2018,02,25,01,15,0.00
2018,02,25,01,16,0.00
2018,02,25,01,17,0.00
2018,02,25,01,18,0.00
2018,02,25,01,19,0.00
2018,02,25,01,20,0.00
2018,02,25,01,21,0.00
2018,02,25,01,22,0.00
2018,02,25,01,23,0.00
2018,02,25,01,24,0.00
2018,02,25,01,25,0.00
2018,02,25,01,26,0.00
2018,02,25,01,27,0.00
2018,02,25,01,28,0.00
2018,02,25,01,29,0.00
2018,02,25,01,30,0.00
2018,02,25,01,31,0.00
2018,02,25,01,32,0.00
2018,02,25,01,33,0.00
2018,02,25,01,34,0.00
2018,02,25,01,35,0.00
2018,02,25,01,36,0.00
2018,02,25,01,37,0.00
2018,02,25,01,38,0.00
2018,02,25,01,39,0.00
2018,02,25,01,40,0.00
2018,02,25,01,41,0.00
2018,02,25,01,42,0.00
2018,02,25,01,43,0.00
2018,02,25,01,44,0.00
2018,02,25,01,45,0.00
2018,02,25,01,46,0.00
2018,02,25,01,47,0.00
2018,02,25,01,48,0.00
2018,02,25,01,49,0.00
2018,02,25,01,50,0.00
2018,02,25,01,51,0.00
2018,02,25,01,52,0.00
2018,02,25,01,53,0.00
2018,02,25,01,54,0.00
2018,02,25,01,55,0.00
2018,02,25,01,56,0.00
2018,02,25,01,57,0.00
2018,02,25,01,58,0.00
2018,02,25,01,59,0.00
2018,02,25,02,00,0.00
2018,02,25,02,01,0.00
2018,02,25,02,02,0.00
2018,02,25,02,03,0.00
2018,02,25,02,04,0.00
2018,02,25,02,05,0.00
2018,02,25,02,06,0.00
2018,02,25,02,07,0.00
2018,02,25,02,08,0.00
2018,02,25,02,09,0.00
2018,02,25,02,10,0.00
2018,02,25,02,11,0.00
2018,02,25,02,12,0.00
2018,02,25,02,13,0.00
2018,02,25,02,14,0.00
2018,02,25,02,15,0.00
2018,02,25,02,16,0.00
2018,02,25,02,17,0.00
2018,02,25,02,18,0.00
2018,02,25,02,19,0.00
2018,02,25,02,20,0.00
2018,02,25,02,21,0.00
2018,02,25,02,22,0.00
2018,02,25,02,23,0.00
2018,02,25,02,24,0.00
2018,02,25,02,25,0.00
2018,02,25,02,26,0.00
2018,02,25,02,27,0.00
2018,02,25,02,28,0.00
2018,02,25,02,29,0.00
2018,02,25,02,30,0.00
2018,02,25,02,31,0.00
2018,02,25,02,32,0.00
2018,02,25,02,33,0.00
2018,02,25,02,34,0.00
2018,02,25,02,35,0.00
2018,02,25,02,36,0.00
2018,02,25,02,37,0.00
2018,02,25,02,38,0.00
2018,02,25,02,39,0.00
2018,02,25,02,40,0.00
2018,02,25,02,41,0.00
2018,02,25,02,42,0.00
2018,02,25,02,43,0.00
2018,02,25,02,44,0.00
2018,02,25,02,45,0.00
2018,02,25,02,46,0.00
2018,02,25,02,47,0.00
2018,02,25,02,48,0.00
2018,02,25,02,49,0.00
2018,02,25,02,50,0.00
2018,02,25,02,51,0.00
2018,02,25,02,52,0.00
2018,02,25,02,53,0.00
2018,02,25,02,54,0.00
2018,02,25,02,55,0.00
2018,02,25,02,56,0.00
2018,02,25,02,57,0.00
2018,02,25,02,58,0.00
2018,02,25,02,59,0.00
2018,02,25,03,00,0.00
2018,02,25,03,01,0.00
2018,02,25,03,02,0.00
2018,02,25,03,03,0.00
2018,02,25,03,04,0.00
2018,02,25,03,05,0.00
2018,02,25,03,06,0.00
2018,02,25,03,07,0.00
2018,02,25,03,08,0.00
2018,02,25,03,09,0.00
2018,02,25,03,10,0.00
2018,02,25,03,11,0.00
2018,02,25,03,12,0.00
2018,02,25,03,13,0.00
2018,02,25,03,14,0.00
2018,02,25,03,15,0.00
2018,02,25,03,16,0.00
2018,02,25,03,17,0.00
2018,02,25,03,18,0.00
2018,02,25,03,19,0.00
2018,02,25,03,20,0.00
2018,02,25,03,21,0.00
2018,02,25,03,22,0.00
2018,02,25,03,23,0.00
2018,02,25,03,24,0.00
2018,02,25,03,25,0.00
2018,02,25,03,26,0.00
2018,02,25,03,27,0.00
2018,02,25,03,28,0.00
2018,02,25,03,29,0.00
2018,02,25,03,30,0.00
2018,02,25,03,31,0.00
2018,02,25,03,32,0.00
2018,02,25,03,33,0.00
2018,02,25,03,34,0.00
2018,02,25,03,35,0.00
2018,02,25,03,36,0.00
2018,02,25,03,37,0.00
2018,02,25,03,38,0.00
2018,02,25,03,39,0.00
2018,02,25,03,40,0.00
2018,02,25,03,41,0.00
2018,02,25,03,42,0.00
2018,02,25,03,43,0.00
2018,02,25,03,44,0.00
2018,02,25,03,45,0.00
2018,02,25,03,46,0.00
2018,02,25,03,47,0.00
2018,02,25,03,48,0.00
2018,02,25,03,49,0.00
2018,02,25,03,50,0.00
2018,02,25,03,51,0.00
2018,02,25,03,52,0.00
2018,02,25,03,53,0.00
2018,02,25,03,54,0.00
2018,02,25,03,55,0.00
2018,02,25,03,56,0.00
2018,02,25,03,57,0.00
2018,02,25,03,58,0.00
2018,02,25,03,59,0.00
2018,02,25,04,00,0.00
2018,02,25,04,01,0.00
2018,02,25,04,02,0.00
2018,02,25,04,03,0.00
2018,02,25,04,04,0.00
2018,02,25,04,05,0.00
2018,02,25,04,06,0.00
2018,02,25,04,07,0.00
2018,02,25,04,08,0.00
2018,02,25,04,09,0.00
2018,02,25,04,10,0.00
2018,02,25,04,11,0.00
2018,02,25,04,12,0.00
2018,02,25,04,13,0.00
2018,02,25,04,14,0.00
2018,02,25,04,15,0.00
2018,02,25,04,16,0.00
2018,02,25,04,17,0.00
2018,02,25,04,18,0.00
2018,02,25,04,19,0.00
2018,02,25,04,20,0.00
2018,02,25,04,21,0.00
2018,02,25,04,22,0.00
2018,02,25,04,23,0.00
2018,02,25,04,24,0.00
2018,02,25,04,25,0.00
2018,02,25,04,26,0.00
2018,02,25,04,27,0.00
2018,02,25,04,28,0.00
2018,02,25,04,29,0.00
2018,02,25,04,30,0.00
2018,02,25,04,31,0.00
2018,02,25,04,32,0.00
2018,02,25,04,33,0.00
2018,02,25,04,34,0.00
2018,02,25,04,35,0.00
2018,02,25,04,36,0.00
2018,02,25,04,37,0.00
2018,02,25,04,38,0.00
2018,02,25,04,39,0.00
2018,02,25,04,40,0.00
2018,02,25,04,41,0.00
2018,02,25,04,42,0.00
2018,02,25,04,43,0.00
2018,02,25,04,44,0.00
2018,02,25,04,45,0.00
2018,02,25,04,46,0.00
2018,02,25,04,47,0.00
2018,02,25,04,48,0.00
2018,02,25,04,49,0.00
2018,02,25,04,50,0.00
2018,02,25,04,51,0.00
2018,02,25,04,52,0.00
2018,02,25,04,53,0.00
2018,02,25,04,54,0.00
2018,02,25,04,55,0.00
2018,02,25,04,56,0.00
2018,02,25,04,57,0.00
2018,02,25,04,58,0.00
2018,02,25,04,59,0.00
2018,02,25,05,00,0.00
2018,02,25,05,01,0.00
2018,02,25,05,02,0.00
2018,02,25,05,03,0.00
2018,02,25,05,04,0.00
2018,02,25,05,05,0.00
2018,02,25,05,06,0.00
2018,02,25,05,07,0.00
2018,02,25,05,08,0.00
2018,02,25,05,09,0.00
2018,02,25,05,10,0.00
2018,02,25,05,11,0.00
2018,02,25,05,12,0.00
2018,02,25,05,13,0.00
2018,02,25,05,14,0.00
2018,02,25,05,15,0.00
2018,02,25,05,16,0.00
2018,02,25,05,17,0.00
2018,02,25,05,18,0.00
2018,02,25,05,19,0.00
2018,02,25,05,20,0.00
2018,02,25,05,21,0.00
2018,02,25,05,22,0.00
2018,02,25,05,23,0.00
2018,02,25,05,24,0.00
2018,02,25,05,25,0.00
2018,02,25,05,26,0.00
2018,02,25,05,27,0.00
2018,02,25,05,28,0.00
2018,02,25,05,29,0.00
2018,02,25,05,30,0.00
2018,02,25,05,31,0.00
2018,02,25,05,32,0.00
2018,02,25,05,33,0.00
2018,02,25,05,34,0.00
2018,02,25,05,35,0.00
2018,02,25,05,36,0.00
2018,02,25,05,37,0.00
2018,02,25,05,38,0.00
2018,02,25,05,39,0.00
2018,02,25,05,40,0.00
2018,02,25,05,41,0.00
2018,02,25,05,42,0.00
2018,02,25,05,43,0.00
2018,02,25,05,44,0.00
2018,02,25,05,45,0.00
2018,02,25,05,46,0.00
2018,02,25,05,47,0.00
2018,02,25,05,48,0.00
2018,02,25,05,49,0.00
2018,02,25,05,50,0.00
2018,02,25,05,51,0.00
2018,02,25,05,52,0.00
2018,02,25,05,53,0.00
2018,02,25,05,54,0.00
2018,02,25,05,55,0.00
2018,02,25,05,56,0.00
2018,02,25,05,57,0.00
2018,02,25,05,58,0.00
2018,02,25,05,59,0.00
2018,02,25,06,00,0.00
2018,02,25,06,01,0.00
2018,02,25,06,02,0.00
2018,02,25,06,03,0.00
2018,02,25,06,04,0.00
2018,02,25,06,05,0.00
2018,02,25,06,06,0.00
2018,02,25,06,07,0.00
2018,02,25,06,08,0.00
2018,02,25,06,09,0.00
2018,02,25,06,10,0.00
2018,02,25,06,11,0.00
2018,02,25,06,12,0.00
2018,02,25,06,13,0.00
2018,02,25,06,14,0.00
2018,02,25,06,15,0.00
2018,02,25,06,16,0.00
2018,02,25,06,17,0.00
2018,02,25,06,18,0.00
2018,02,25,06,19,0.00
2018,02,25,06,20,0.00
2018,02,25,06,21,0.00
2018,02,25,06,22,0.00
2018,02,25,06,23,0.00
2018,02,25,06,24,0.00
2018,02,25,06,25,0.00
2018,02,25,06,26,0.00
2018,02,25,06,27,0.00
2018,02,25,06,28,0.00
2018,02,25,06,29,0.00
2018,02,25,06,30,0.00
2018,02,25,06,31,0.00
2018,02,25,06,32,0.00
2018,02,25,06,33,0.00
2018,02,25,06,34,0.00
2018,02,25,06,35,0.00
2018,02,25,06,36,0.00
2018,02,25,06,37,0.00
2018,02,25,06,38,0.00
2018,02,25,06,39,0.00
2018,02,25,06,40,0.00
2018,02,25,06,41,0.00
2018,02,25,06,42,0.00
2018,02,25,06,43,0.00
2018,02,25,06,44,0.00
2018,02,25,06,45,0.00
2018,02,25,06,46,0.00
2018,02,25,06,47,0.00
2018,02,25,06,48,0.00
2018,02,25,06,49,0.00
2018,02,25,06,50,0.00
2018,02,25,06,51,0.00
2018,02,25,06,52,0.00
2018,02,25,06,53,0.00
2018,02,25,06,54,0.00
2018,02,25,06,55,0.00
2018,02,25,06,56,0.00
2018,02,25,06,57,0.00
2018,02,25,06,58,0.00
2018,02,25,06,59,0.00
2018,02,25,07,00,0.00
2018,02,25,07,01,0.00
2018,02,25,07,02,0.00
2018,02,25,07,03,0.00
2018,02,25,07,04,0.00
2018,02,25,07,05,0.00
2018,02,25,07,06,0.00
2018,02,25,07,07,0.00
2018,02,25,07,08,0.00
2018,02,25,07,09,0.00
2018,02,25,07,10,0.00
2018,02,25,07,11,0.00
2018,02,25,07,12,0.00
2018,02,25,07,13,0.00
2018,02,25,07,14,0.00
2018,02,25,07,15,0.00
2018,02,25,07,16,0.00
2018,02,25,07,17,4.30
2018,02,25,07,18,5.00
2018,02,25,07,19,5.00
2018,02,25,07,20,5.00
2018,02,25,07,21,5.50
2018,02,25,07,22,7.00
2018,02,25,07,23,7.00
2018,02,25,07,24,7.00
2018,02,25,07,25,7.00
2018,02,25,07,26,7.00
2018,02,25,07,27,8.50
2018,02,25,07,28,9.00
2018,02,25,07,29,9.00
2018,02,25,07,30,11.00
2018,02,25,07,31,11.00
2018,02,25,07,32,11.20
2018,02,25,07,33,12.00
2018,02,25,07,34,12.00
2018,02,25,07,35,12.00
2018,02,25,07,36,12.00
2018,02,25,07,37,13.30
2018,02,25,07,38,14.00
2018,02,25,07,39,14.00
2018,02,25,07,40,14.00
2018,02,25,07,41,18.10
2018,02,25,07,42,19.30
2018,02,25,07,43,21.40
2018,02,25,07,44,23.60
2018,02,25,07,45,25.40
2018,02,25,07,46,27.00
2018,02,25,07,47,30.40
2018,02,25,07,48,32.70
2018,02,25,07,49,36.00
2018,02,25,07,50,38.70
2018,02,25,07,51,39.90
2018,02,25,07,52,42.10
2018,02,25,07,53,44.00
2018,02,25,07,54,44.00
2018,02,25,07,55,43.30
2018,02,25,07,56,42.00
2018,02,25,07,57,42.00
2018,02,25,07,58,42.00
2018,02,25,07,59,42.00
2018,02,25,08,00,42.00
2018,02,25,08,01,43.70
2018,02,25,08,02,44.00
2018,02,25,08,03,46.00
2018,02,25,08,04,46.00
2018,02,25,08,05,46.00
2018,02,25,08,06,46.00
2018,02,25,08,07,46.00
2018,02,25,08,08,46.00
2018,02,25,08,09,46.00
2018,02,25,08,10,43.30
2018,02,25,08,11,40.50
2018,02,25,08,12,39.20
2018,02,25,08,13,39.90
2018,02,25,08,14,40.10
2018,02,25,08,15,42.00
2018,02,25,08,16,42.00
2018,02,25,08,17,42.00
2018,02,25,08,18,42.00
2018,02,25,08,19,41.00
2018,02,25,08,20,40.00
2018,02,25,08,21,39.30
2018,02,25,08,22,39.00
2018,02,25,08,23,39.00
2018,02,25,08,24,39.00
2018,02,25,08,25,40.00
2018,02,25,08,26,40.00
2018,02,25,08,27,40.00
2018,02,25,08,28,39.70
2018,02,25,08,29,39.00
2018,02,25,08,30,38.00
2018,02,25,08,31,35.80
2018,02,25,08,32,33.70
2018,02,25,08,33,33.00
2018,02,25,08,34,33.00
2018,02,25,08,35,34.90
2018,02,25,08,36,37.10
2018,02,25,08,37,39.20
2018,02,25,08,38,40.50
2018,02,25,08,39,43.30
2018,02,25,08,40,48.00
2018,02,25,08,41,54.60
2018,02,25,08,42,61.00
2018,02,25,08,43,65.70
2018,02,25,08,44,69.20
2018,02,25,08,45,74.90
2018,02,25,08,46,78.80
2018,02,25,08,47,83.00
2018,02,25,08,48,82.70
2018,02,25,08,49,81.00
2018,02,25,08,50,81.70
2018,02,25,08,51,84.20
2018,02,25,08,52,88.60
2018,02,25,08,53,94.60
2018,02,25,08,54,99.00
2018,02,25,08,55,103.00
2018,02,25,08,56,106.40
2018,02,25,08,57,105.10
2018,02,25,08,58,101.70
2018,02,25,08,59,97.60
2018,02,25,09,00,94.00
2018,02,25,09,01,90.70
2018,02,25,09,02,90.00
2018,02,25,09,03,90.00
2018,02,25,09,04,91.70
2018,02,25,09,05,96.30
2018,02,25,09,06,103.20
2018,02,25,09,07,114.00
2018,02,25,09,08,120.40
2018,02,25,09,09,119.90
2018,02,25,09,10,117.10
2018,02,25,09,11,112.00
2018,02,25,09,12,106.70
2018,02,25,09,13,100.00
2018,02,25,09,14,93.90
2018,02,25,09,15,90.40
2018,02,25,09,16,90.00
2018,02,25,09,17,87.00
2018,02,25,09,18,83.50
2018,02,25,09,19,77.70
2018,02,25,09,20,69.60
2018,02,25,09,21,64.60
2018,02,25,09,22,62.00
2018,02,25,09,23,62.00
2018,02,25,09,24,62.00
2018,02,25,09,25,61.00
2018,02,25,09,26,61.10
2018,02,25,09,27,62.70
2018,02,25,09,28,66.00
2018,02,25,09,29,71.30
2018,02,25,09,30,76.60
2018,02,25,09,31,86.50
2018,02,25,09,32,94.70
2018,02,25,09,33,103.60
2018,02,25,09,34,111.20
2018,02,25,09,35,118.00
2018,02,25,09,36,122.00
2018,02,25,09,37,123.00
2018,02,25,09,38,119.70
2018,02,25,09,39,115.00
2018,02,25,09,40,109.70
2018,02,25,09,41,104.40
2018,02,25,09,42,97.60
2018,02,25,09,43,92.10
2018,02,25,09,44,87.50
2018,02,25,09,45,85.30
2018,02,25,09,46,84.00
2018,02,25,09,47,80.40
2018,02,25,09,48,78.20
2018,02,25,09,49,80.30
2018,02,25,09,50,78.00
2018,02,25,09,51,70.20
2018,02,25,09,52,60.70
2018,02,25,09,53,53.90
2018,02,25,09,54,53.00
2018,02,25,09,55,53.30
2018,02,25,09,56,54.70
2018,02,25,09,57,57.60
2018,02,25,09,58,61.60
2018,02,25,09,59,64.20
2018,02,25,10,00,65.00
2018,02,25,10,01,65.00
2018,02,25,10,02,65.00
2018,02,25,10,03,65.00
2018,02,25,10,04,65.10
2018,02,25,10,05,67.00
2018,02,25,10,06,67.00
2018,02,25,10,07,67.70
2018,02,25,10,08,69.00
2018,02,25,10,09,69.00
2018,02,25,10,10,70.70
2018,02,25,10,11,73.30
2018,02,25,10,12,75.50
2018,02,25,10,13,76.00
2018,02,25,10,14,74.10
2018,02,25,10,15,77.30
2018,02,25,10,16,81.90
2018,02,25,10,17,85.20
2018,02,25,10,18,84.00
2018,02,25,10,19,87.60
2018,02,25,10,20,93.60
2018,02,25,10,21,97.00
2018,02,25,10,22,97.00
2018,02,25,10,23,97.00
2018,02,25,10,24,97.90
2018,02,25,10,25,98.00
2018,02,25,10,26,96.60
2018,02,25,10,27,89.10
2018,02,25,10,28,80.50
2018,02,25,10,29,80.70
2018,02,25,10,30,84.80
2018,02,25,10,31,86.00
2018,02,25,10,32,84.20
2018,02,25,10,33,80.30
2018,02,25,10,34,79.00
2018,02,25,10,35,80.70
2018,02,25,10,36,83.80
2018,02,25,10,37,88.00
2018,02,25,10,38,88.40
2018,02,25,10,39,91.50
2018,02,25,10,40,93.00
2018,02,25,10,41,93.80
2018,02,25,10,42,95.00
2018,02,25,10,43,92.80
2018,02,25,10,44,90.30
2018,02,25,10,45,85.60
2018,02,25,10,46,83.20
2018,02,25,10,47,81.20
2018,02,25,10,48,81.00
2018,02,25,10,49,81.30
2018,02,25,10,50,83.20
2018,02,25,10,51,84.00
2018,02,25,10,52,86.30
2018,02,25,10,53,89.00
2018,02,25,10,54,85.60
2018,02,25,10,55,80.70
2018,02,25,10,56,76.80
2018,02,25,10,57,76.00
2018,02,25,10,58,80.60
2018,02,25,10,59,84.20
2018,02,25,11,00,86.90
2018,02,25,11,01,92.00
2018,02,25,11,02,96.50
2018,02,25,11,03,100.70
2018,02,25,11,04,106.50
2018,02,25,11,05,120.50
2018,02,25,11,06,137.00
2018,02,25,11,07,155.30
2018,02,25,11,08,166.00
2018,02,25,11,09,192.80
2018,02,25,11,10,229.10
2018,02,25,11,11,257.50
2018,02,25,11,12,278.00
2018,02,25,11,13,312.00
2018,02,25,11,14,356.30
2018,02,25,11,15,411.50
2018,02,25,11,16,453.40
2018,02,25,11,17,487.30
2018,02,25,11,18,495.30
2018,02,25,11,19,446.70
2018,02,25,11,20,461.90
2018,02,25,11,21,436.00
2018,02,25,11,22,436.00
2018,02,25,11,23,363.10
2018,02,25,11,24,163.70
2018,02,25,11,25,174.80
2018,02,25,11,26,171.30
2018,02,25,11,27,196.90
2018,02,25,11,28,211.00
2018,02,25,11,29,242.10
2018,02,25,11,30,244.50
2018,02,25,11,31,239.40
2018,02,25,11,32,257.40
2018,02,25,11,33,497.00
2018,02,25,11,34,473.40
2018,02,25,11,35,406.00
2018,02,25,11,36,360.40
2018,02,25,11,37,277.40
2018,02,25,11,38,273.30
2018,02,25,11,39,248.30
2018,02,25,11,40,235.00
2018,02,25,11,41,270.20
2018,02,25,11,42,306.70
2018,02,25,11,43,246.00
2018,02,25,11,44,246.00
2018,02,25,11,45,318.00
2018,02,25,11,46,570.00
2018,02,25,11,47,455.90
2018,02,25,11,48,248.60
2018,02,25,11,49,212.90
2018,02,25,11,50,212.70
2018,02,25,11,51,209.00
2018,02,25,11,52,452.60
2018,02,25,11,53,508.00
2018,02,25,11,54,357.80
2018,02,25,11,55,343.00
2018,02,25,11,56,393.00
2018,02,25,11,57,539.00
2018,02,25,11,58,549.10
2018,02,25,11,59,562.20
2018,02,25,12,00,557.00
2018,02,25,12,01,556.70
2018,02,25,12,02,578.00
2018,02,25,12,03,584.00
2018,02,25,12,04,599.70
2018,02,25,12,05,610.00
2018,02,25,12,06,599.60
2018,02,25,12,07,540.00
2018,02,25,12,08,540.00
2018,02,25,12,09,540.00
2018,02,25,12,10,540.00
2018,02,25,12,11,540.00
2018,02,25,12,12,353.30
2018,02,25,12,13,245.90
2018,02,25,12,14,232.00
2018,02,25,12,15,230.00
2018,02,25,12,16,282.20
2018,02,25,12,17,247.40
2018,02,25,12,18,227.00
2018,02,25,12,19,240.90
2018,02,25,12,20,274.00
2018,02,25,12,21,465.10
2018,02,25,12,22,657.70
2018,02,25,12,23,647.00
2018,02,25,12,24,647.00
2018,02,25,12,25,647.00
2018,02,25,12,26,295.10
2018,02,25,12,27,276.00
2018,02,25,12,28,291.00
2018,02,25,12,29,352.10
2018,02,25,12,30,306.30
2018,02,25,12,31,240.60
2018,02,25,12,32,220.90
2018,02,25,12,33,209.00
2018,02,25,12,34,216.90
2018,02,25,12,35,218.50
2018,02,25,12,36,231.10
2018,02,25,12,37,234.00
2018,02,25,12,38,233.70
2018,02,25,12,39,233.70
2018,02,25,12,40,240.40
2018,02,25,12,41,225.30
2018,02,25,12,42,231.30
2018,02,25,12,43,192.10
2018,02,25,12,44,181.00
2018,02,25,12,45,181.00
2018,02,25,12,46,181.00
2018,02,25,12,47,181.00
2018,02,25,12,48,181.00
2018,02,25,12,49,208.30
2018,02,25,12,50,553.10
2018,02,25,12,51,567.90
2018,02,25,12,52,557.80
2018,02,25,12,53,553.80
2018,02,25,12,54,550.10
2018,02,25,12,55,546.30
2018,02,25,12,56,546.30
2018,02,25,12,57,547.00
2018,02,25,12,58,558.50
2018,02,25,12,59,561.00
2018,02,25,13,00,137.00
2018,02,25,13,01,137.00
2018,02,25,13,02,242.80
2018,02,25,13,03,544.30
2018,02,25,13,04,545.90
2018,02,25,13,05,550.00
2018,02,25,13,06,550.00
2018,02,25,13,07,582.00
2018,02,25,13,08,541.70
2018,02,25,13,09,522.00
2018,02,25,13,10,324.80
2018,02,25,13,11,309.00
2018,02,25,13,12,309.00
2018,02,25,13,13,309.00
2018,02,25,13,14,309.00
2018,02,25,13,15,309.00
2018,02,25,13,16,435.10
2018,02,25,13,17,571.00
2018,02,25,13,18,264.30
2018,02,25,13,19,106.60
2018,02,25,13,20,149.80
2018,02,25,13,21,160.00
2018,02,25,13,22,188.70
2018,02,25,13,23,547.00
2018,02,25,13,24,547.30
2018,02,25,13,25,548.70
2018,02,25,13,26,551.60
2018,02,25,13,27,556.40
2018,02,25,13,28,559.00
2018,02,25,13,29,563.70
2018,02,25,13,30,566.00
2018,02,25,13,31,580.70
2018,02,25,13,32,591.40
2018,02,25,13,33,561.60
2018,02,25,13,34,197.30
2018,02,25,13,35,269.00
2018,02,25,13,36,381.00
2018,02,25,13,37,653.50
2018,02,25,13,38,672.10
2018,02,25,13,39,696.80
2018,02,25,13,40,707.00
2018,02,25,13,41,707.00
2018,02,25,13,42,345.80
2018,02,25,13,43,283.00
2018,02,25,13,44,289.80
2018,02,25,13,45,325.00
2018,02,25,13,46,393.90
2018,02,25,13,47,634.40
2018,02,25,13,48,616.30
2018,02,25,13,49,567.00
2018,02,25,13,50,550.60
2018,02,25,13,51,513.00
2018,02,25,13,52,461.90
2018,02,25,13,53,452.00
2018,02,25,13,54,285.30
2018,02,25,13,55,279.00
2018,02,25,13,56,300.70
2018,02,25,13,57,377.10
2018,02,25,13,58,326.70
2018,02,25,13,59,316.90
2018,02,25,14,00,268.10
2018,02,25,14,01,207.50
2018,02,25,14,02,174.30
2018,02,25,14,03,130.30
2018,02,25,14,04,64.90
2018,02,25,14,05,41.20
2018,02,25,14,06,32.90
2018,02,25,14,07,31.70
2018,02,25,14,08,30.00
2018,02,25,14,09,30.00
2018,02,25,14,10,31.20
2018,02,25,14,11,34.90
2018,02,25,14,12,40.00
2018,02,25,14,13,46.70
2018,02,25,14,14,54.20
2018,02,25,14,15,65.00
2018,02,25,14,16,78.10
2018,02,25,14,17,94.00
2018,02,25,14,18,108.60
2018,02,25,14,19,119.60
2018,02,25,14,20,126.00
2018,02,25,14,21,128.00
2018,02,25,14,22,128.00
2018,02,25,14,23,126.30
2018,02,25,14,24,120.30
2018,02,25,14,25,112.80
2018,02,25,14,26,106.10
2018,02,25,14,27,105.00
2018,02,25,14,28,104.30
2018,02,25,14,29,94.70
2018,02,25,14,30,97.70
2018,02,25,14,31,108.70
2018,02,25,14,32,108.90
2018,02,25,14,33,101.60
2018,02,25,14,34,77.70
2018,02,25,14,35,70.00
2018,02,25,14,36,66.00
2018,02,25,14,37,63.40
2018,02,25,14,38,62.10
2018,02,25,14,39,57.90
2018,02,25,14,40,55.70
2018,02,25,14,41,53.20
2018,02,25,14,42,50.30
2018,02,25,14,43,48.20
2018,02,25,14,44,46.50
2018,02,25,14,45,44.90
2018,02,25,14,46,44.00
2018,02,25,14,47,44.00
2018,02,25,14,48,44.00
2018,02,25,14,49,45.80
2018,02,25,14,50,49.50
2018,02,25,14,51,57.30
2018,02,25,14,52,67.00
2018,02,25,14,53,77.00
2018,02,25,14,54,85.90
2018,02,25,14,55,93.90
2018,02,25,14,56,103.00
2018,02,25,14,57,111.70
2018,02,25,14,58,117.00
2018,02,25,14,59,119.60
2018,02,25,15,00,118.20
2018,02,25,15,01,115.80
2018,02,25,15,02,112.10
2018,02,25,15,03,106.30
2018,02,25,15,04,102.20
2018,02,25,15,05,96.00
2018,02,25,15,06,92.00
2018,02,25,15,07,90.40
2018,02,25,15,08,87.50
2018,02,25,15,09,86.00
2018,02,25,15,10,83.60
2018,02,25,15,11,83.00
2018,02,25,15,12,83.20
2018,02,25,15,13,86.70
2018,02,25,15,14,91.00
2018,02,25,15,15,93.30
2018,02,25,15,16,98.00
2018,02,25,15,17,97.50
2018,02,25,15,18,97.00
2018,02,25,15,19,102.30
2018,02,25,15,20,148.00
2018,02,25,15,21,163.00
2018,02,25,15,22,314.90
2018,02,25,15,23,374.00
2018,02,25,15,24,374.00
2018,02,25,15,25,298.80
2018,02,25,15,26,81.30
2018,02,25,15,27,74.40
2018,02,25,15,28,70.60
2018,02,25,15,29,66.60
2018,02,25,15,30,63.70
2018,02,25,15,31,62.30
2018,02,25,15,32,60.40
2018,02,25,15,33,56.30
2018,02,25,15,34,54.10
2018,02,25,15,35,55.60
2018,02,25,15,36,52.50
2018,02,25,15,37,54.00
2018,02,25,15,38,63.70
2018,02,25,15,39,58.40
2018,02,25,15,40,42.90
2018,02,25,15,41,39.30
2018,02,25,15,42,37.50
2018,02,25,15,43,35.30
2018,02,25,15,44,33.10
2018,02,25,15,45,31.90
2018,02,25,15,46,30.00
2018,02,25,15,47,29.50
2018,02,25,15,48,28.00
2018,02,25,15,49,28.00
2018,02,25,15,50,28.00
2018,02,25,15,51,29.20
2018,02,25,15,52,30.00
2018,02,25,15,53,30.00
2018,02,25,15,54,28.40
2018,02,25,15,55,28.00
2018,02,25,15,56,28.10
2018,02,25,15,57,30.30
2018,02,25,15,58,32.70
2018,02,25,15,59,35.60
2018,02,25,16,00,38.20
2018,02,25,16,01,43.10
2018,02,25,16,02,49.00
2018,02,25,16,03,57.00
2018,02,25,16,04,68.90
2018,02,25,16,05,82.20
2018,02,25,16,06,107.10
2018,02,25,16,07,193.80
2018,02,25,16,08,213.80
2018,02,25,16,09,180.70
2018,02,25,16,10,137.00
2018,02,25,16,11,198.10
2018,02,25,16,12,186.80
2018,02,25,16,13,161.30
2018,02,25,16,14,170.90
2018,02,25,16,15,197.70
2018,02,25,16,16,192.90
2018,02,25,16,17,147.40
2018,02,25,16,18,171.60
2018,02,25,16,19,185.70
2018,02,25,16,20,100.10
2018,02,25,16,21,101.30
2018,02,25,16,22,147.90
2018,02,25,16,23,159.90
2018,02,25,16,24,133.20
2018,02,25,16,25,155.00
2018,02,25,16,26,171.00
2018,02,25,16,27,124.10
2018,02,25,16,28,49.30
2018,02,25,16,29,42.10
2018,02,25,16,30,44.70
2018,02,25,16,31,50.20
2018,02,25,16,32,55.20
2018,02,25,16,33,59.60
2018,02,25,16,34,62.50
2018,02,25,16,35,63.00
2018,02,25,16,36,62.30
2018,02,25,16,37,57.60
2018,02,25,16,38,48.70
2018,02,25,16,39,40.80
2018,02,25,16,40,35.00
2018,02,25,16,41,32.90
2018,02,25,16,42,31.60
2018,02,25,16,43,29.40
2018,02,25,16,44,28.00
2018,02,25,16,45,27.00
2018,02,25,16,46,25.40
2018,02,25,16,47,23.70
2018,02,25,16,48,23.00
2018,02,25,16,49,23.00
2018,02,25,16,50,23.00
2018,02,25,16,51,23.10
2018,02,25,16,52,25.00
2018,02,25,16,53,25.30
2018,02,25,16,54,26.70
2018,02,25,16,55,28.80
2018,02,25,16,56,31.00
2018,02,25,16,57,32.00
2018,02,25,16,58,32.00
2018,02,25,16,59,32.00
2018,02,25,17,00,30.30
2018,02,25,17,01,30.00
2018,02,25,17,02,28.00
2018,02,25,17,03,27.60
2018,02,25,17,04,26.00
2018,02,25,17,05,26.70
2018,02,25,17,06,30.90
2018,02,25,17,07,41.70
2018,02,25,17,08,37.70
2018,02,25,17,09,32.00
2018,02,25,17,10,30.80
2018,02,25,17,11,30.00
2018,02,25,17,12,32.80
2018,02,25,17,13,36.20
2018,02,25,17,14,27.70
2018,02,25,17,15,27.30
2018,02,25,17,16,32.00
2018,02,25,17,17,32.00
2018,02,25,17,18,31.00
2018,02,25,17,19,28.90
2018,02,25,17,20,26.70
2018,02,25,17,21,25.30
2018,02,25,17,22,21.60
2018,02,25,17,23,18.20
2018,02,25,17,24,16.00
2018,02,25,17,25,14.00
2018,02,25,17,26,13.50
2018,02,25,17,27,12.00